QPF
0.06 0.07 0.05 0.03 0.02 0.02 0.03 0.04 0.06 0.05 0.04 0.04 0.07 0.13 0.15 0.14 0.14 0.12 0.11 0.11 0.08 0.07 0.06 0.05 0.04 0.04 0.06 0.07 0.07 0.06 0.04 0.03 0.04 0.04 0.04 0.04 0.03 0.03
0.04 0.04 0.04 0.02 0.02 0.02 0.02 0.04 0.04 0.05 0.06 0.05 0.05 0.07 0.13 0.13 0.14 0.13 0.13 0.14 0.10 0.07 0.06 0.05 0.05 0.05 0.04 0.04 0.05 0.04 0.04 0.03 0.03 0.04 0.04 0.04 0.04 0.03
0.02 0.02 0.02 0.02 0.02 0.03 0.03 0.03 0.03 0.04 0.05 0.05 0.05 0.06 0.08 0.11 0.12 0.13 0.15 0.13 0.10 0.08 0.06 0.04 0.04 0.04 0.05 0.04 0.04 0.03 0.03 0.03 0.04 0.04 0.04 0.03 0.02 0.02
0.02 0.02 0.02 0.01 0.02 0.03 0.02 0.02 0.03 0.04 0.04 0.05 0.05 0.05 0.06 0.07 0.09 0.11 0.10 0.10 0.10 0.09 0.08 0.06 0.04 0.03 0.03 0.04 0.04 0.04 0.03 0.03 0.03 0.04 0.04 0.03 0.03 0.03
0.02 0.02 0.02 0.01 0.01 0.02 0.02 0.02 0.02 0.03 0.03 0.03 0.03 0.03 0.05 0.06 0.07 0.09 0.10 0.10 0.09 0.10 0.10 0.08 0.07 0.05 0.03 0.03 0.03 0.03 0.03 0.02 0.03 0.03 0.04 0.04 0.05 0.05
0.02 0.02 0.01 0.01 0.02 0.02 0.02 0.02 0.02 0.03 0.03 0.04 0.03 0.03 0.04 0.07 0.08 0.08 0.09 0.09 0.09 0.10 0.10 0.09 0.09 0.08 0.05 0.04 0.04 0.03 0.03 0.02 0.02 0.02 0.03 0.03 0.04 0.04
0.01 0.01 0.02 0.01 0.01 0.02 0.02 0.02 0.02 0.02 0.03 0.04 0.04 0.04 0.04 0.07 0.07 0.05 0.06 0.08 0.08 0.08 0.09 0.09 0.08 0.06 0.05 0.04 0.05 0.05 0.04 0.04 0.03 0.02 0.02 0.03 0.03 0.03
0.02 0.02 0.02 0.02 0.02 0.02 0.02 0.02 0.03 0.03 0.02 0.03 0.03 0.03 0.03 0.05 0.06 0.07 0.07 0.07 0.07 0.06 0.07 0.08 0.10 0.08 0.06 0.04 0.04 0.05 0.06 0.06 0.05 0.04 0.03 0.03 0.03 0.03
0.02 0.02 0.02 0.03 0.03 0.03 0.04 0.03 0.03 0.03 0.03 0.03 0.02 0.02 0.02 0.03 0.05 0.05 0.06 0.05 0.05 0.06 0.07 0.07 0.09 0.09 0.08 0.08 0.08 0.07 0.07 0.07 0.07 0.06 0.05 0.04 0.03 0.03
0.02 0.02 0.02 0.03 0.04 0.04 0.03 0.02 0.02 0.02 0.02 0.02 0.02 0.03 0.03 0.04 0.05 0.07 0.08 0.06 0.06 0.08 0.10 0.09 0.08 0.08 0.09 0.10 0.12 0.11 0.09 0.08 0.07 0.06 0.06 0.05 0.05 0.05
0.01 0.01 0.02 0.02 0.03 0.05 0.04 0.03 0.02 0.02 0.02 0.02 0.02 0.02 0.03 0.04 0.06 0.07 0.07 0.07 0.07 0.09 0.10 0.10 0.09 0.09 0.10 0.10 0.12 0.13 0.12 0.11 0.10 0.09 0.08 0.07 0.08 0.09
0.03 0.02 0.03 0.04 0.04 0.04 0.04 0.04 0.03 0.02 0.02 0.02 0.02 0.02 0.03 0.04 0.05 0.05 0.05 0.05 0.05 0.06 0.08 0.09 0.09 0.10 0.12 0.11 0.10 0.10 0.11 0.12 0.11 0.10 0.09 0.09 0.09 0.08
0.02 0.02 0.04 0.06 0.06 0.04 0.04 0.05 0.05 0.03 0.02 0.03 0.02 0.02 0.04 0.05 0.05 0.05 0.07 0.08 0.09 0.08 0.08 0.09 0.10 0.10 0.09 0.09 0.10 0.10 0.08 0.08 0.09 0.10 0.10 0.09 0.09 0.07
0.01 0.01 0.02 0.03 0.05 0.05 0.03 0.03 0.05 0.03 0.03 0.04 0.03 0.03 0.04 0.05 0.07 0.07 0.08 0.10 0.11 0.12 0.12 0.11 0.12 0.11 0.11 0.10 0.09 0.10 0.11 0.09 0.09 0.10 0.10 0.10 0.10 0.08
0.00 0.00 0.01 0.01 0.02 0.03 0.03 0.02 0.02 0.03 0.05 0.04 0.03 0.04 0.05 0.07 0.09 0.10 0.10 0.10 0.11 0.11 0.10 0.09 0.08 0.09 0.10 0.10 0.09 0.09 0.10 0.10 0.09 0.09 0.10 0.09 0.07 0.06
0.00 0.00 0.00 0.00 0.01 0.01 0.01 0.01 0.02 0.02 0.04 0.03 0.03 0.03 0.04 0.06 0.07 0.09 0.10 0.09 0.09 0.09 0.08 0.07 0.06 0.06 0.06 0.07 0.08 0.08 0.08 0.08 0.07 0.06 0.06 0.07 0.06 0.05
0.01 0.01 0.01 0.01 0.00 0.00 0.01 0.01 0.01 0.02 0.02 0.02 0.03 0.03 0.03 0.04 0.05 0.06 0.08 0.08 0.08 0.08 0.08 0.07 0.07 0.07 0.07 0.07 0.06 0.06 0.06 0.06 0.06 0.06 0.06 0.06 0.05 0.03
0.01 0.01 0.01 0.01 0.01 0.01 0.01 0.01 0.01 0.01 0.01 0.02 0.02 0.03 0.03 0.03 0.03 0.06 0.07 0.06 0.05 0.05 0.05 0.05 0.06 0.07 0.07 0.07 0.06 0.06 0.06 0.05 0.05 0.05 0.05 0.05 0.05 0.04
0.00 0.00 0.00 0.01 0.01 0.01 0.01 0.01 0.01 0.01 0.01 0.01 0.01 0.02 0.02 0.02 0.03 0.03 0.04 0.04 0.03 0.02 0.02 0.02 0.03 0.03 0.04 0.05 0.05 0.04 0.05 0.05 0.05 0.05 0.04 0.03 0.04 0.04
0.00 0.00 0.00 0.00 0.00 0.00 0.00 0.00 0.01 0.01 0.01 0.01 0.01 0.01 0.02 0.02 0.02 0.02 0.02 0.02 0.03 0.03 0.02 0.02 0.02 0.02 0.02 0.02 0.02 0.03 0.03 0.04 0.05 0.04 0.04 0.04 0.04 0.04
0.00 0.00 0.00 0.00 0.00 0.00 0.00 0.00 0.00 0.00 0.01 0.01 0.01 0.01 0.01 0.02 0.02 0.02 0.02 0.03 0.03 0.02 0.02 0.02 0.02 0.02 0.02 0.02 0.02 0.02 0.02 0.02 0.04 0.04 0.03 0.04 0.04 0.04
0.00 0.00 0.00 0.00 0.00 0.00 0.00 0.00 0.00 0.00 0.00 0.01 0.01 0.01 0.02 0.02 0.02 0.02 0.02 0.02 0.02 0.02 0.01 0.01 0.02 0.02 0.02 0.02 0.02 0.02 0.02 0.02 0.02 0.03 0.03 0.03 0.02 0.02
0.00 0.00 0.00 0.00 0.00 0.00 0.00 0.00 0.00 0.00 0.00 0.01 0.01 0.01 0.02 0.02 0.02 0.01 0.01 0.01 0.02 0.01 0.01 0.01 0.01 0.01 0.01 0.02 0.02 0.02 0.02 0.02 0.02 0.02 0.02 0.02 0.02 0.02
MSLP
1011.09 1010.97 1010.88 1010.83 1010.78 1010.73 1010.68 1010.60 1010.52 1010.42 1010.33 1010.26 1010.20 1010.16 1010.15 1010.17 1010.22 1010.32 1010.48 1010.69 1010.97 1011.31 1011.70 1012.12 1012.56 1013.00 1013.41 1013.80 1014.17 1014.52 1014.87 1015.22 1015.60 1015.99 1016.40 1016.80 1017.18 1017.54
1010.88 1010.68 1010.52 1010.40 1010.31 1010.23 1010.16 1010.10 1010.04 1009.99 1009.95 1009.92 1009.90 1009.88 1009.87 1009.88 1009.91 1009.97 1010.09 1010.26 1010.50 1010.81 1011.18 1011.58 1012.02 1012.45 1012.87 1013.28 1013.66 1014.04 1014.41 1014.79 1015.20 1015.62 1016.04 1016.47 1016.87 1017.24
1010.72 1010.47 1010.26 1010.08 1009.94 1009.84 1009.76 1009.71 1009.67 1009.66 1009.66 1009.67 1009.68 1009.68 1009.68 1009.68 1009.69 1009.73 1009.80 1009.94 1010.15 1010.42 1010.76 1011.14 1011.56 1011.98 1012.41 1012.82 1013.21 1013.60 1013.98 1014.39 1014.81 1015.25 1015.70 1016.14 1016.57 1016.95
1010.64 1010.36 1010.11 1009.90 1009.72 1009.58 1009.49 1009.43 1009.40 1009.41 1009.43 1009.46 1009.49 1009.51 1009.52 1009.52 1009.52 1009.54 1009.59 1009.70 1009.88 1010.12 1010.43 1010.79 1011.19 1011.60 1012.00 1012.40 1012.79 1013.17 1013.55 1013.96 1014.39 1014.84 1015.31 1015.78 1016.23 1016.64
1010.63 1010.33 1010.06 1009.81 1009.60 1009.42 1009.29 1009.20 1009.15 1009.15 1009.17 1009.20 1009.24 1009.27 1009.29 1009.30 1009.31 1009.33 1009.39 1009.49 1009.66 1009.89 1010.18 1010.51 1010.88 1011.26 1011.64 1012.01 1012.37 1012.72 1013.09 1013.48 1013.90 1014.36 1014.84 1015.33 1015.81 1016.27
1010.63 1010.33 1010.04 1009.76 1009.50 1009.27 1009.08 1008.93 1008.83 1008.78 1008.77 1008.78 1008.82 1008.86 1008.90 1008.93 1008.97 1009.03 1009.11 1009.24 1009.42 1009.66 1009.94 1010.26 1010.60 1010.95 1011.29 1011.61 1011.92 1012.24 1012.57 1012.93 1013.33 1013.78 1014.26 1014.78 1015.29 1015.80
1010.59 1010.29 1009.97 1009.65 1009.33 1009.03 1008.75 1008.52 1008.34 1008.21 1008.14 1008.12 1008.14 1008.19 1008.26 1008.35 1008.45 1008.57 1008.72 1008.90 1009.13 1009.39 1009.69 1010.01 1010.33 1010.64 1010.93 1011.20 1011.46 1011.72 1012.00 1012.32 1012.69 1013.11 1013.60 1014.13 1014.69 1015.24
1010.47 1010.16 1009.81 1009.43 1009.04 1008.64 1008.27 1007.92 1007.63 1007.42 1007.27 1007.21 1007.21 1007.28 1007.39 1007.55 1007.74 1007.95 1008.20 1008.47 1008.77 1009.08 1009.41 1009.74 1010.04 1010.33 1010.58 1010.80 1011.00 1011.20 1011.42 1011.69 1012.02 1012.43 1012.91 1013.45 1014.04 1014.64
1010.27 1009.93 1009.54 1009.10 1008.62 1008.12 1007.62 1007.16 1006.76 1006.44 1006.22 1006.11 1006.11 1006.20 1006.37 1006.61 1006.91 1007.24 1007.59 1007.97 1008.35 1008.74 1009.10 1009.45 1009.75 1010.02 1010.23 1010.41 1010.57 1010.72 1010.90 1011.13 1011.42 1011.81 1012.28 1012.83 1013.45 1014.09
1010.01 1009.64 1009.20 1008.70 1008.14 1007.53 1006.92 1006.34 1005.83 1005.42 1005.13 1004.98 1004.97 1005.10 1005.34 1005.67 1006.07 1006.51 1006.98 1007.46 1007.93 1008.38 1008.79 1009.16 1009.47 1009.72 1009.92 1010.08 1010.21 1010.34 1010.49 1010.69 1010.98 1011.35 1011.81 1012.37 1013.00 1013.67
1009.74 1009.35 1008.88 1008.32 1007.68 1006.99 1006.29 1005.61 1005.01 1004.52 1004.18 1004.00 1004.00 1004.16 1004.46 1004.87 1005.36 1005.90 1006.47 1007.02 1007.56 1008.05 1008.49 1008.87 1009.19 1009.45 1009.65 1009.81 1009.94 1010.07 1010.23 1010.44 1010.72 1011.10 1011.57 1012.14 1012.77 1013.46
1009.54 1009.14 1008.64 1008.05 1007.37 1006.62 1005.85 1005.10 1004.44 1003.90 1003.53 1003.34 1003.34 1003.53 1003.88 1004.34 1004.89 1005.49 1006.10 1006.70 1007.26 1007.77 1008.22 1008.60 1008.92 1009.19 1009.40 1009.58 1009.74 1009.91 1010.10 1010.35 1010.67 1011.07 1011.56 1012.13 1012.77 1013.45
1009.41 1009.03 1008.54 1007.94 1007.24 1006.47 1005.67 1004.90 1004.21 1003.65 1003.27 1003.07 1003.09 1003.29 1003.66 1004.15 1004.71 1005.32 1005.93 1006.51 1007.05 1007.54 1007.96 1008.33 1008.64 1008.92 1009.16 1009.38 1009.59 1009.83 1010.09 1010.39 1010.76 1011.20 1011.72 1012.30 1012.94 1013.61
1009.35 1009.00 1008.55 1007.98 1007.31 1006.55 1005.76 1005.00 1004.32 1003.77 1003.39 1003.21 1003.23 1003.43 1003.79 1004.27 1004.80 1005.37 1005.93 1006.45 1006.93 1007.35 1007.72 1008.05 1008.35 1008.63 1008.90 1009.17 1009.45 1009.76 1010.10 1010.49 1010.92 1011.41 1011.96 1012.55 1013.18 1013.83
1009.29 1009.01 1008.62 1008.11 1007.49 1006.78 1006.04 1005.32 1004.68 1004.17 1003.82 1003.65 1003.68 1003.87 1004.20 1004.63 1005.10 1005.59 1006.06 1006.48 1006.86 1007.20 1007.50 1007.77 1008.04 1008.32 1008.62 1008.94 1009.29 1009.68 1010.10 1010.57 1011.07 1011.60 1012.17 1012.77 1013.38 1014.00
1009.18 1008.98 1008.66 1008.23 1007.68 1007.06 1006.39 1005.74 1005.17 1004.71 1004.40 1004.26 1004.29 1004.47 1004.75 1005.11 1005.51 1005.89 1006.25 1006.57 1006.83 1007.07 1007.29 1007.51 1007.75 1008.02 1008.34 1008.70 1009.11 1009.56 1010.05 1010.57 1011.12 1011.68 1012.26 1012.85 1013.44 1014.01
1008.97 1008.85 1008.62 1008.26 1007.81 1007.27 1006.69 1006.13 1005.64 1005.25 1004.99 1004.88 1004.92 1005.07 1005.31 1005.61 1005.91 1006.20 1006.45 1006.66 1006.83 1006.97 1007.12 1007.29 1007.51 1007.77 1008.10 1008.49 1008.94 1009.43 1009.95 1010.50 1011.05 1011.62 1012.18 1012.74 1013.29 1013.82
1008.68 1008.62 1008.46 1008.18 1007.81 1007.36 1006.87 1006.41 1005.99 1005.67 1005.47 1005.39 1005.44 1005.58 1005.78 1006.01 1006.23 1006.43 1006.60 1006.72 1006.82 1006.91 1007.01 1007.15 1007.35 1007.61 1007.95 1008.35 1008.80 1009.30 1009.82 1010.35 1010.88 1011.41 1011.93 1012.44 1012.93 1013.40
1008.37 1008.35 1008.23 1008.02 1007.71 1007.34 1006.94 1006.55 1006.21 1005.96 1005.80 1005.75 1005.80 1005.92 1006.08 1006.26 1006.42 1006.56 1006.67 1006.74 1006.79 1006.86 1006.94 1007.08 1007.28 1007.55 1007.89 1008.28 1008.73 1009.20 1009.68 1010.17 1010.64 1011.10 1011.55 1011.99 1012.41 1012.82
1008.14 1008.14 1008.05 1007.86 1007.60 1007.28 1006.94 1006.62 1006.34 1006.13 1006.00 1005.96 1006.00 1006.09 1006.22 1006.35 1006.46 1006.56 1006.62 1006.67 1006.72 1006.79 1006.89 1007.05 1007.27 1007.55 1007.89 1008.28 1008.69 1009.12 1009.55 1009.96 1010.35 1010.73 1011.10 1011.45 1011.81 1012.16
1008.11 1008.09 1008.00 1007.82 1007.58 1007.29 1006.98 1006.69 1006.44 1006.25 1006.12 1006.07 1006.08 1006.13 1006.21 1006.28 1006.35 1006.41 1006.45 1006.49 1006.55 1006.64 1006.78 1006.97 1007.22 1007.53 1007.88 1008.26 1008.64 1009.02 1009.38 1009.71 1010.02 1010.32 1010.60 1010.88 1011.18 1011.48
1008.35 1008.30 1008.17 1007.97 1007.72 1007.43 1007.13 1006.85 1006.60 1006.39 1006.25 1006.15 1006.10 1006.09 1006.09 1006.10 1006.10 1006.11 1006.13 1006.16 1006.23 1006.35 1006.53 1006.76 1007.05 1007.39 1007.75 1008.12 1008.48 1008.82 1009.12 1009.39 1009.63 1009.85 1010.07 1010.30 1010.56 1010.84
1008.86 1008.75 1008.58 1008.34 1008.07 1007.76 1007.44 1007.14 1006.86 1006.62 1006.41 1006.25 1006.11 1006.00 1005.90 1005.82 1005.74 1005.68 1005.66 1005.67 1005.74 1005.87 1006.07 1006.34 1006.66 1007.02 1007.40 1007.77 1008.11 1008.42 1008.69 1008.92 1009.12 1009.31 1009.50 1009.71 1009.95 1010.23
Thickness
5662 5664 5666 5669 5672 5675 5678 5680 5678 5677 5682 5690 5696 5703 5706 5708 5711 5712 5713 5714 5715 5716 5717 5717 5717 5717 5717 5716 5716 5715 5715 5714 5713 5712 5710 5709 5707 5706
5658 5659 5662 5664 5667 5670 5673 5675 5677 5677 5678 5684 5690 5696 5699 5702 5704 5705 5707 5708 5709 5710 5711 5712 5712 5711 5711 5711 5711 5710 5709 5709 5708 5707 5705 5704 5703 5701
5654 5656 5658 5660 5663 5666 5669 5671 5673 5675 5675 5679 5684 5689 5692 5694 5696 5698 5699 5700 5702 5704 5705 5705 5706 5706 5706 5705 5705 5704 5704 5703 5702 5701 5700 5699 5698 5697
5651 5652 5654 5657 5658 5661 5664 5666 5668 5671 5672 5673 5677 5680 5683 5687 5689 5690 5692 5694 5695 5697 5698 5699 5699 5699 5699 5699 5699 5698 5698 5697 5697 5696 5695 5694 5693 5691
5649 5649 5651 5652 5654 5656 5659 5661 5663 5667 5668 5669 5670 5673 5676 5679 5680 5682 5684 5686 5688 5689 5690 5692 5692 5692 5693 5693 5693 5692 5692 5692 5691 5690 5689 5688 5687 5686
5648 5649 5650 5650 5652 5653 5655 5656 5659 5660 5662 5664 5664 5666 5668 5671 5672 5673 5674 5677 5679 5682 5683 5684 5685 5685 5686 5687 5687 5686 5686 5686 5685 5684 5683 5682 5681 5680
5648 5649 5649 5650 5652 5652 5653 5653 5655 5655 5657 5658 5659 5660 5661 5663 5665 5667 5667 5669 5671 5674 5675 5677 5678 5678 5679 5680 5680 5680 5680 5680 5679 5678 5677 5676 5675 5673
5647 5648 5648 5649 5650 5651 5652 5653 5653 5653 5654 5654 5655 5656 5657 5659 5660 5661 5661 5661 5662 5667 5667 5668 5670 5671 5673 5674 5674 5674 5674 5674 5673 5672 5671 5669 5668 5666
5647 5647 5648 5649 5648 5648 5650 5651 5651 5653 5654 5653 5653 5654 5655 5656 5656 5656 5656 5657 5658 5661 5660 5661 5663 5664 5666 5667 5668 5668 5668 5667 5667 5666 5665 5663 5661 5659
5647 5646 5646 5646 5647 5647 5647 5647 5647 5649 5651 5652 5652 5653 5654 5654 5654 5655 5654 5653 5653 5654 5655 5654 5656 5658 5660 5661 5661 5662 5662 5662 5661 5660 5658 5656 5654 5652
5647 5647 5646 5646 5647 5646 5645 5644 5645 5646 5649 5650 5651 5651 5652 5652 5651 5650 5648 5647 5647 5648 5649 5650 5651 5651 5652 5654 5656 5656 5656 5655 5654 5653 5652 5650 5648 5646
5647 5646 5646 5646 5646 5645 5643 5643 5642 5644 5645 5647 5647 5648 5648 5648 5649 5648 5647 5645 5644 5643 5645 5645 5645 5645 5645 5647 5649 5649 5649 5649 5648 5647 5646 5644 5642 5639
5645 5645 5645 5646 5645 5644 5643 5642 5642 5643 5643 5643 5643 5643 5644 5644 5645 5645 5644 5644 5643 5642 5643 5642 5641 5640 5640 5640 5641 5643 5643 5643 5642 5640 5639 5638 5636 5635
5645 5644 5644 5644 5644 5643 5642 5642 5643 5642 5641 5640 5640 5640 5640 5640 5641 5641 5640 5641 5642 5642 5642 5641 5639 5638 5636 5635 5635 5637 5637 5637 5636 5635 5634 5632 5630 5629
5645 5644 5643 5643 5642 5641 5641 5641 5641 5639 5638 5637 5636 5636 5637 5637 5636 5636 5636 5636 5636 5637 5638 5638 5637 5636 5634 5633 5632 5631 5631 5631 5630 5629 5628 5626 5625 5623
5644 5643 5642 5641 5640 5639 5639 5638 5638 5637 5636 5635 5634 5634 5634 5633 5632 5632 5631 5631 5630 5630 5632 5632 5632 5632 5630 5629 5628 5627 5627 5626 5626 5624 5622 5621 5619 5617
5641 5639 5638 5637 5636 5636 5636 5636 5635 5635 5633 5633 5632 5631 5630 5630 5629 5628 5627 5626 5625 5625 5626 5626 5626 5627 5627 5625 5623 5623 5622 5621 5621 5620 5617 5615 5614 5613
5638 5635 5634 5633 5632 5632 5632 5632 5632 5632 5631 5631 5630 5629 5628 5627 5626 5625 5623 5622 5621 5621 5621 5621 5620 5619 5618 5618 5620 5619 5618 5617 5616 5614 5613 5611 5610 5610
5633 5632 5630 5630 5629 5629 5629 5629 5629 5630 5629 5628 5627 5626 5625 5624 5623 5622 5620 5619 5618 5617 5617 5616 5615 5614 5613 5614 5615 5616 5615 5613 5611 5610 5609 5608 5608 5609
5627 5627 5626 5626 5626 5625 5625 5625 5626 5626 5625 5624 5624 5623 5623 5622 5620 5619 5618 5617 5616 5614 5613 5612 5611 5611 5612 5612 5612 5612 5612 5611 5608 5607 5606 5604 5604 5604
5622 5621 5621 5621 5621 5621 5622 5621 5621 5621 5621 5620 5620 5620 5619 5618 5617 5616 5615 5614 5613 5612 5611 5611 5611 5611 5610 5607 5606 5606 5607 5608 5608 5606 5604 5600 5598 5598
5614 5614 5614 5613 5614 5614 5615 5615 5615 5615 5615 5615 5615 5615 5615 5614 5614 5613 5612 5611 5610 5610 5610 5609 5608 5605 5604 5604 5604 5604 5603 5602 5602 5602 5602 5603 5600 5598
5605 5604 5604 5604 5605 5605 5605 5606 5607 5607 5608 5608 5609 5609 5609 5609 5610 5609 5609 5609 5608 5607 5605 5604 5602 5601 5601 5601 5601 5600 5599 5598 5597 5596 5596 5599 5599 5600